{"data":{"norad_id":56174,"epoch":"2026-05-25T04:28:19.046784Z","epoch_age_seconds":52169,"freshness":"FRESH","line1":"1 56174U 23052A   26145.18633156  .00000000  00000+0  00000+0 0  9994","line2":"2 56174   0.0142 293.7294 0001906 171.4833 113.6467  1.00268937 11591","mean_motion":1.00268937,"eccentricity":0.0001906,"inclination_deg":0.0142,"raan_deg":293.7294,"arg_perigee_deg":171.4833,"mean_anomaly_deg":113.6467,"bstar":0,"rev_number":1159,"period_min":1436.1376943689,"perigee_km":35779.356627784,"apogee_km":35795.430127964,"semimajor_km":42165.530377874,"source":"CELESTRAK","updated_at":"2026-05-25T13:38:14.140054Z"}}